When you browse on this site, cookies collect data to enhance your experience and personalize the content and advertising you see.
Visit our Privacy Policy to learn more. By continuing to use the site, you agree to this use of cookies and data.
  • In Hungary
  • List of Countries
  • For 7 days
  • Water Temperature
  • Satellite Maps
  • Weather Map
  • News
  • Weather Widgets
  • user-avatar
    Login

    Hourly Weather Santa Cruz

    Today, 23 March, Saturday

    Time Temperature Precipitation Wind Pressure Humidity
    00:00 +19°C° 0 mm 1 mps 747 mmHg 43%
    01:00 +18°C° 0 mm 1 mps 747 mmHg 42%
    02:00 +18°C° 0 mm 1 mps 747 mmHg 44%
    03:00 +16°C° 0 mm 1 mps 746 mmHg 45%
    04:00 +16°C° 0 mm 2 mps 746 mmHg 46%
    05:00 +16°C° 0 mm 2 mps 747 mmHg 47%
    06:00 +17°C° 0 mm 2 mps 747 mmHg 47%
    07:00 +17°C° 0 mm 2 mps 747 mmHg 47%
    08:00 +20°C° 0 mm 2 mps 747 mmHg 39%
    09:00 +25°C° 0 mm 3 mps 747 mmHg 31%
    10:00 +28°C° 0 mm 3 mps 747 mmHg 23%
    11:00 +30°C° 0 mm 4 mps 747 mmHg 20%
    12:00 +33°C° 0 mm 4 mps 747 mmHg 18%
    13:00 +35°C° 0 mm 5 mps 747 mmHg 15%
    14:00 +35°C° 0 mm 5 mps 747 mmHg 15%
    15:00 +34°C° 0 mm 5 mps 747 mmHg 15%
    16:00 +34°C° 0 mm 5 mps 747 mmHg 15%
    17:00 +30°C° 0 mm 4 mps 747 mmHg 23%
    18:00 +27°C° 0 mm 3 mps 748 mmHg 30%
    19:00 +24°C° 0 mm 3 mps 748 mmHg 37%
    20:00 +22°C° 0 mm 3 mps 748 mmHg 40%
    21:00 +21°C° 0 mm 2 mps 748 mmHg 43%
    22:00 +20°C° 0 mm 2 mps 748 mmHg 45%
    23:00 +19°C° 0 mm 2 mps 748 mmHg 48%

    Tomorrow, 24 March, Sunday

    Time Temperature Precipitation Wind Pressure Humidity
    00:00 +18°C° 0 mm 2 mps 748 mmHg 50%
    01:00 +17°C° 0 mm 2 mps 748 mmHg 52%
    02:00 +17°C° 0 mm 2 mps 748 mmHg 54%
    03:00 +16°C° 0 mm 2 mps 747 mmHg 57%
    04:00 +15°C° 0 mm 2 mps 747 mmHg 59%
    05:00 +16°C° 0 mm 2 mps 747 mmHg 58%
    06:00 +16°C° 0 mm 2 mps 747 mmHg 57%
    07:00 +16°C° 0 mm 2 mps 747 mmHg 56%
    08:00 +20°C° 0 mm 2 mps 747 mmHg 45%
    09:00 +25°C° 0 mm 2 mps 747 mmHg 35%
    10:00 +28°C° 0 mm 2 mps 747 mmHg 25%
    11:00 +30°C° 0 mm 3 mps 747 mmHg 22%
    12:00 +33°C° 0 mm 3 mps 746 mmHg 19%
    13:00 +35°C° 0 mm 3 mps 746 mmHg 16%
    14:00 +34°C° 0 mm 4 mps 746 mmHg 17%
    15:00 +34°C° 0 mm 4 mps 746 mmHg 18%
    16:00 +33°C° 0 mm 4 mps 746 mmHg 19%
    17:00 +28°C° 0 mm 3 mps 746 mmHg 29%
    18:00 +24°C° 0 mm 3 mps 746 mmHg 38%
    19:00 +19°C° 0 mm 2 mps 746 mmHg 48%
    20:00 +19°C° 0 mm 1 mps 746 mmHg 52%
    21:00 +18°C° 0 mm 1 mps 747 mmHg 56%
    22:00 +16°C° 0 mm 1 mps 747 mmHg 60%
    23:00 +16°C° 0 mm 1 mps 746 mmHg 60%

    Day after tomorrow, 25 March, Monday

    Time Temperature Precipitation Wind Pressure Humidity
    00:00 +16°C° 0 mm 1 mps 746 mmHg 60%
    01:00 +15°C° 0 mm 0 mps 746 mmHg 60%
    02:00 +14°C° 0 mm 0 mps 746 mmHg 59%
    03:00 +14°C° 0 mm 0 mps 745 mmHg 57%
    04:00 +14°C° 0 mm 0 mps 745 mmHg 55%
    05:00 +16°C° 0 mm 1 mps 746 mmHg 51%
    06:00 +18°C° 0 mm 1 mps 746 mmHg 46%
    07:00 +19°C° 0 mm 1 mps 746 mmHg 42%
    08:00 +22°C° 0 mm 1 mps 746 mmHg 35%
    09:00 +25°C° 0 mm 2 mps 746 mmHg 27%
    10:00 +28°C° 0 mm 2 mps 746 mmHg 20%
    11:00 +30°C° 0 mm 2 mps 746 mmHg 18%
    12:00 +33°C° 0 mm 3 mps 746 mmHg 16%
    13:00 +34°C° 0 mm 3 mps 746 mmHg 14%
    14:00 +34°C° 0 mm 3 mps 746 mmHg 15%
    15:00 +33°C° 0 mm 4 mps 745 mmHg 17%
    16:00 +32°C° 0 mm 4 mps 745 mmHg 18%
    17:00 +28°C° 0 mm 3 mps 745 mmHg 27%
    18:00 +24°C° 0 mm 2 mps 746 mmHg 36%
    19:00 +20°C° 0 mm 1 mps 746 mmHg 45%
    20:00 +19°C° 0 mm 1 mps 746 mmHg 48%
    21:00 +19°C° 0 mm 1 mps 746 mmHg 51%
    22:00 +18°C° 0 mm 1 mps 746 mmHg 53%
    23:00 +16°C° 0 mm 1 mps 746 mmHg 54%

    26 March, Tuesday

    Time Temperature Precipitation Wind Pressure Humidity
    00:00 +16°C° 0 mm 1 mps 746 mmHg 55%
    01:00 +15°C° 0 mm 1 mps 745 mmHg 56%
    02:00 +15°C° 0 mm 1 mps 745 mmHg 56%
    03:00 +15°C° 0 mm 1 mps 745 mmHg 56%
    04:00 +13°C° 0 mm 0 mps 745 mmHg 56%
    05:00 +14°C° 0 mm 0 mps 745 mmHg 52%
    06:00 +15°C° 0 mm 0 mps 745 mmHg 48%
    07:00 +16°C° 0 mm 0 mps 745 mmHg 44%
    08:00 +22°C° 0 mm 1 mps 745 mmHg 36%
    09:00 +25°C° 0 mm 1 mps 745 mmHg 28%
    10:00 +29°C° 0 mm 2 mps 746 mmHg 20%
    11:00 +31°C° 0 mm 2 mps 745 mmHg 18%
    12:00 +33°C° 0 mm 3 mps 745 mmHg 16%
    13:00 +35°C° 0 mm 3 mps 745 mmHg 14%
    14:00 +34°C° 0 mm 3 mps 744 mmHg 17%
    15:00 +33°C° 0 mm 4 mps 744 mmHg 20%
    16:00 +32°C° 0 mm 4 mps 744 mmHg 23%
    17:00 +27°C° 0 mm 3 mps 745 mmHg 33%
    18:00 +24°C° 0 mm 2 mps 745 mmHg 43%
    19:00 +20°C° 0 mm 1 mps 745 mmHg 53%
    20:00 +19°C° 0 mm 1 mps 745 mmHg 56%
    21:00 +19°C° 0 mm 1 mps 746 mmHg 59%
    22:00 +16°C° 0 mm 0 mps 746 mmHg 62%
    23:00 +16°C° 0 mm 1 mps 745 mmHg 62%

    27 March, Wednesday

    Time Temperature Precipitation Wind Pressure Humidity
    00:00 +16°C° 0 mm 1 mps 745 mmHg 62%
    01:00 +16°C° 0 mm 1 mps 745 mmHg 62%
    02:00 +15°C° 0 mm 1 mps 745 mmHg 61%
    03:00 +15°C° 0 mm 1 mps 745 mmHg 61%
    04:00 +15°C° 0 mm 1 mps 745 mmHg 61%
    05:00 +16°C° 0 mm 1 mps 745 mmHg 56%
    06:00 +18°C° 0 mm 1 mps 745 mmHg 52%
    07:00 +19°C° 0 mm 1 mps 745 mmHg 48%
    08:00 +22°C° 0 mm 1 mps 746 mmHg 40%
    09:00 +25°C° 0 mm 2 mps 746 mmHg 32%
    10:00 +29°C° 0 mm 2 mps 746 mmHg 24%
    11:00 +30°C° 0 mm 3 mps 746 mmHg 22%
    12:00 +33°C° 0 mm 3 mps 746 mmHg 19%
    13:00 +34°C° 0 mm 3 mps 746 mmHg 17%
    14:00 +33°C° 0 mm 4 mps 746 mmHg 20%
    15:00 +32°C° 0 mm 4 mps 746 mmHg 22%
    16:00 +30°C° 0 mm 4 mps 746 mmHg 25%
    17:00 +27°C° 0 mm 3 mps 746 mmHg 35%
    18:00 +23°C° 0 mm 2 mps 746 mmHg 45%
    19:00 +20°C° 0 mm 1 mps 747 mmHg 54%
    20:00 +19°C° 0 mm 1 mps 747 mmHg 57%
    21:00 +18°C° 0 mm 1 mps 747 mmHg 60%
    22:00 +16°C° 0 mm 1 mps 747 mmHg 63%
    23:00 +16°C° 0 mm 1 mps 747 mmHg 63%

    28 March, Thursday

    Time Temperature Precipitation Wind Pressure Humidity
    00:00 +16°C° 0 mm 1 mps 747 mmHg 62%
    01:00 +15°C° 0 mm 1 mps 747 mmHg 62%
    02:00 +15°C° 0 mm 1 mps 746 mmHg 62%
    03:00 +15°C° 0 mm 1 mps 746 mmHg 61%
    04:00 +15°C° 0 mm 1 mps 746 mmHg 61%
    05:00 +15°C° 0 mm 1 mps 747 mmHg 58%
    06:00 +16°C° 0 mm 1 mps 747 mmHg 55%
    07:00 +18°C° 0 mm 1 mps 747 mmHg 52%
    08:00 +21°C° 0 mm 1 mps 747 mmHg 43%
    09:00 +25°C° 0 mm 1 mps 747 mmHg 34%
    10:00 +28°C° 0 mm 2 mps 748 mmHg 25%
    11:00 +30°C° 0 mm 2 mps 747 mmHg 23%
    12:00 +32°C° 0 mm 2 mps 747 mmHg 20%
    13:00 +35°C° 0 mm 3 mps 747 mmHg 17%
    14:00 +34°C° 0 mm 3 mps 747 mmHg 20%
    15:00 +33°C° 0 mm 3 mps 747 mmHg 22%
    16:00 +32°C° 0 mm 4 mps 747 mmHg 24%
    17:00 +28°C° 0 mm 3 mps 747 mmHg 35%
    18:00 +24°C° 0 mm 2 mps 747 mmHg 45%
    19:00 +20°C° 0 mm 2 mps 748 mmHg 56%
    20:00 +20°C° 0 mm 1 mps 747 mmHg 58%
    21:00 +19°C° 0 mm 1 mps 747 mmHg 61%
    22:00 +18°C° 0 mm 1 mps 747 mmHg 64%
    23:00 +18°C° 0 mm 1 mps 747 mmHg 62%
    Show more